Time,TemperatureF,DewpointF,PressureIn,WindDirection,WindDirectionDegrees,WindSpeedMPH,WindSpeedGustMPH,Humidity,HourlyPrecipIn,Conditions,Clouds,dailyrainin,SoftwareType,DateUTC
2013-03-08 00:00:00,26.2,20.6,29.98,NW,325,9.0,12.0,79,0.00,,,0.00,Wunderground v.1.15,2013-03-08 05:00:00,
2013-03-08 00:10:00,26.2,20.6,29.97,NW,323,10.0,12.0,79,0.00,,,0.00,Wunderground v.1.15,2013-03-08 05:10:00,
2013-03-08 00:20:00,26.2,20.6,29.97,NNW,330,13.0,22.0,79,0.00,,,0.00,Wunderground v.1.15,2013-03-08 05:20:00,
2013-03-08 00:30:00,26.3,20.7,29.97,NW,319,15.0,15.0,79,0.00,,,0.00,Wunderground v.1.15,2013-03-08 05:30:00,
2013-03-08 00:40:00,26.3,20.7,29.97,NW,315,15.0,16.0,79,0.00,,,0.00,Wunderground v.1.15,2013-03-08 05:40:00,
2013-03-08 00:50:00,26.3,20.7,29.97,NNW,330,14.0,14.0,79,0.00,,,0.00,Wunderground v.1.15,2013-03-08 05:50:00,
2013-03-08 01:00:00,26.3,20.7,29.97,NNW,329,14.0,22.0,79,0.00,,,0.00,Wunderground v.1.15,2013-03-08 06:00:00,
2013-03-08 01:10:00,26.2,20.6,29.97,WNW,286,12.0,12.0,79,0.00,,,0.00,Wunderground v.1.15,2013-03-08 06:10:00,
2013-03-08 01:20:00,26.2,20.6,29.98,NNW,327,12.0,12.0,79,0.00,,,0.00,Wunderground v.1.15,2013-03-08 06:20:00,
2013-03-08 01:30:00,26.2,20.6,29.98,NW,325,10.0,10.0,79,0.00,,,0.00,Wunderground v.1.15,2013-03-08 06:30:00,
2013-03-08 01:40:00,26.2,20.6,29.98,NW,311,8.0,11.0,79,0.00,,,0.00,Wunderground v.1.15,2013-03-08 06:40:00,
2013-03-08 01:50:00,26.2,20.6,29.97,NNW,329,9.0,9.0,79,0.00,,,0.00,Wunderground v.1.15,2013-03-08 06:50:00,
2013-03-08 02:00:00,26.2,20.9,29.96,West,274,9.0,9.0,80,0.00,,,0.00,Wunderground v.1.15,2013-03-08 07:00:00,
2013-03-08 02:10:00,26.1,20.8,29.96,NW,315,12.0,15.0,80,0.00,,,0.00,Wunderground v.1.15,2013-03-08 07:10:00,
2013-03-08 02:20:00,26.1,20.8,29.96,NW,323,10.0,15.0,80,0.00,,,0.00,Wunderground v.1.15,2013-03-08 07:20:00,
2013-03-08 02:30:00,26.3,21.0,29.95,NW,326,11.0,15.0,80,0.00,,,0.00,Wunderground v.1.15,2013-03-08 07:30:00,
2013-03-08 02:40:00,26.3,21.0,29.95,NW,304,15.0,17.0,80,0.00,,,0.00,Wunderground v.1.15,2013-03-08 07:40:00,
2013-03-08 02:50:00,26.4,20.8,29.96,NW,313,14.0,14.0,79,0.00,,,0.00,Wunderground v.1.15,2013-03-08 07:50:00,
2013-03-08 03:00:00,26.3,20.7,29.96,WNW,288,11.0,11.0,79,0.00,,,0.00,Wunderground v.1.15,2013-03-08 08:00:00,
2013-03-08 03:10:00,26.4,20.8,29.95,NW,312,10.0,10.0,79,0.00,,,0.00,Wunderground v.1.15,2013-03-08 08:10:00,
2013-03-08 03:20:00,26.2,20.9,29.94,WNW,296,10.0,13.0,80,0.00,,,0.00,Wunderground v.1.15,2013-03-08 08:20:00,
2013-03-08 03:30:00,26.1,20.8,29.93,NNW,333,13.0,13.0,80,0.00,,,0.00,Wunderground v.1.15,2013-03-08 08:30:00,
2013-03-08 03:40:00,26.0,21.0,29.93,North,355,12.0,12.0,81,0.00,,,0.00,Wunderground v.1.15,2013-03-08 08:40:00,
2013-03-08 03:50:00,25.8,20.8,29.93,NW,321,11.0,11.0,81,0.00,,,0.00,Wunderground v.1.15,2013-03-08 08:50:00,
2013-03-08 04:00:00,25.9,20.9,29.94,NW,321,11.0,14.0,81,0.00,,,0.00,Wunderground v.1.15,2013-03-08 09:00:00,
2013-03-08 04:10:00,26.0,21.0,29.95,NW,315,10.0,10.0,81,0.00,,,0.00,Wunderground v.1.15,2013-03-08 09:10:00,
2013-03-08 04:20:00,26.2,21.2,29.95,NW,315,9.0,14.0,81,0.00,,,0.00,Wunderground v.1.15,2013-03-08 09:20:00,
2013-03-08 04:30:00,26.3,21.3,29.95,NW,306,8.0,9.0,81,0.00,,,0.00,Wunderground v.1.15,2013-03-08 09:30:00,
2013-03-08 04:40:00,26.4,21.4,29.96,NW,317,10.0,10.0,81,0.00,,,0.00,Wunderground v.1.15,2013-03-08 09:40:00,
2013-03-08 04:50:00,26.5,21.2,29.95,NW,325,10.0,11.0,80,0.00,,,0.00,Wunderground v.1.15,2013-03-08 09:50:00,
2013-03-08 05:00:00,26.5,21.2,29.96,NW,308,9.0,9.0,80,0.00,,,0.00,Wunderground v.1.15,2013-03-08 10:00:00,
2013-03-08 05:10:00,26.5,21.2,29.97,WNW,298,8.0,9.0,80,0.00,,,0.00,Wunderground v.1.15,2013-03-08 10:10:00,
2013-03-08 05:20:00,26.5,21.5,29.97,North,355,9.0,9.0,81,0.00,,,0.00,Wunderground v.1.15,2013-03-08 10:20:00,
2013-03-08 05:30:00,26.5,21.2,29.97,WNW,284,10.0,10.0,80,0.00,,,0.00,Wunderground v.1.15,2013-03-08 10:30:00,
2013-03-08 05:40:00,26.5,21.2,29.97,NNW,333,10.0,10.0,80,0.00,,,0.00,Wunderground v.1.15,2013-03-08 10:40:00,
2013-03-08 05:50:00,26.4,21.1,29.97,NNW,327,9.0,11.0,80,0.00,,,0.00,Wunderground v.1.15,2013-03-08 10:50:00,
2013-03-08 06:00:00,26.2,21.2,29.97,NNW,334,9.0,9.0,81,0.00,,,0.00,Wunderground v.1.15,2013-03-08 11:00:00,
2013-03-08 06:10:00,26.3,21.3,29.97,WNW,301,10.0,10.0,81,0.00,,,0.00,Wunderground v.1.15,2013-03-08 11:10:00,
2013-03-08 06:20:00,26.4,21.4,29.97,NNW,333,10.0,10.0,81,0.00,,,0.00,Wunderground v.1.15,2013-03-08 11:20:00,
2013-03-08 06:30:00,26.3,21.3,29.97,WNW,301,9.0,9.0,81,0.00,,,0.00,Wunderground v.1.15,2013-03-08 11:30:00,
2013-03-08 06:40:00,26.4,21.4,29.98,NNW,339,8.0,9.0,81,0.00,,,0.00,Wunderground v.1.15,2013-03-08 11:40:00,
2013-03-08 06:50:00,26.3,21.3,29.98,NNW,347,9.0,9.0,81,0.00,,,0.00,Wunderground v.1.15,2013-03-08 11:50:00,
2013-03-08 07:00:00,26.4,21.4,29.98,North,5,13.0,13.0,81,0.00,,,0.00,Wunderground v.1.15,2013-03-08 12:00:00,
2013-03-08 07:10:00,26.4,21.4,29.98,North,355,12.0,12.0,81,0.00,,,0.00,Wunderground v.1.15,2013-03-08 12:10:00,
2013-03-08 07:20:00,26.5,21.5,29.98,NNW,340,11.0,11.0,81,0.00,,,0.00,Wunderground v.1.15,2013-03-08 12:20:00,
2013-03-08 07:30:00,26.5,21.5,29.98,NNW,346,12.0,14.0,81,0.00,,,0.00,Wunderground v.1.15,2013-03-08 12:30:00,
2013-03-08 07:40:00,27.2,21.8,29.99,NNW,327,13.0,13.0,80,0.00,,,0.00,Wunderground v.1.15,2013-03-08 12:40:00,
2013-03-08 07:50:00,27.6,21.9,29.99,NW,315,13.0,13.0,79,0.00,,,0.00,Wunderground v.1.15,2013-03-08 12:50:00,
2013-03-08 08:00:00,27.8,22.1,30.00,NNW,327,13.0,13.0,79,0.00,,,0.00,Wunderground v.1.15,2013-03-08 13:00:00,
2013-03-08 08:09:00,27.9,21.9,30.00,NW,310,13.0,20.0,78,0.00,,,0.00,Wunderground v.1.15,2013-03-08 13:09:00,
2013-03-08 08:20:00,28.2,22.2,30.01,WNW,301,12.0,12.0,78,0.00,,,0.00,Wunderground v.1.15,2013-03-08 13:20:00,
2013-03-08 08:30:00,28.8,22.8,30.02,NW,311,12.0,13.0,78,0.00,,,0.00,Wunderground v.1.15,2013-03-08 13:30:00,
2013-03-08 08:40:00,28.7,22.1,30.02,NW,323,13.0,14.0,76,0.00,,,0.00,Wunderground v.1.15,2013-03-08 13:40:00,
2013-03-08 08:50:00,28.9,22.6,30.03,NW,324,11.0,13.0,77,0.00,,,0.00,Wunderground v.1.15,2013-03-08 13:50:00,
2013-03-08 09:00:00,29.0,22.4,30.03,NW,317,11.0,22.0,76,0.00,,,0.00,Wunderground v.1.15,2013-03-08 14:00:00,
2013-03-08 09:10:00,29.6,23.3,30.03,NNW,329,11.0,11.0,77,0.00,,,0.00,Wunderground v.1.15,2013-03-08 14:10:00,
2013-03-08 09:20:00,30.3,23.3,30.03,NW,322,10.0,12.0,75,0.00,,,0.00,Wunderground v.1.15,2013-03-08 14:20:00,
2013-03-08 09:30:00,29.8,22.2,30.03,North,355,15.0,15.0,73,0.00,,,0.00,Wunderground v.1.15,2013-03-08 14:30:00,
2013-03-08 09:40:00,29.9,22.3,30.03,NNW,338,14.0,14.0,73,0.00,,,0.00,Wunderground v.1.15,2013-03-08 14:40:00,
2013-03-08 09:50:00,30.4,22.1,30.03,NW,321,15.0,15.0,71,0.00,,,0.00,Wunderground v.1.15,2013-03-08 14:50:00,
2013-03-08 10:00:00,30.8,22.5,30.03,NW,321,14.0,14.0,71,0.00,,,0.00,Wunderground v.1.15,2013-03-08 15:00:00,
2013-03-08 10:10:00,32.7,24.0,30.03,NNW,334,11.0,11.0,70,0.00,,,0.00,Wunderground v.1.15,2013-03-08 15:10:00,
2013-03-08 10:20:00,32.8,22.7,30.03,NNW,345,12.0,16.0,66,0.00,,,0.00,Wunderground v.1.15,2013-03-08 15:20:00,
2013-03-08 10:30:00,32.7,21.9,30.03,North,5,15.0,15.0,64,0.00,,,0.00,Wunderground v.1.15,2013-03-08 15:30:00,
2013-03-08 10:40:00,33.0,22.5,30.03,NW,323,16.0,21.0,65,0.00,,,0.00,Wunderground v.1.15,2013-03-08 15:40:00,
2013-03-08 10:50:00,33.3,22.4,30.03,NW,318,15.0,15.0,64,0.00,,,0.00,Wunderground v.1.15,2013-03-08 15:50:00,
2013-03-08 11:00:00,33.5,22.2,30.03,North,5,16.0,16.0,63,0.00,,,0.00,Wunderground v.1.15,2013-03-08 16:00:00,
2013-03-08 11:10:00,33.9,22.2,30.03,NNE,15,15.0,15.0,62,0.00,,,0.00,Wunderground v.1.15,2013-03-08 16:10:00,
2013-03-08 11:20:00,35.0,23.3,30.03,West,265,12.0,12.0,62,0.00,,,0.00,Wunderground v.1.15,2013-03-08 16:20:00,
2013-03-08 11:30:00,35.0,22.9,30.03,NW,307,11.0,16.0,61,0.00,,,0.00,Wunderground v.1.15,2013-03-08 16:30:00,
2013-03-08 11:40:00,35.2,23.5,30.04,NNW,342,13.0,14.0,62,0.00,,,0.00,Wunderground v.1.15,2013-03-08 16:40:00,
2013-03-08 11:50:00,36.1,23.5,30.02,NW,316,11.0,11.0,60,0.00,,,0.00,Wunderground v.1.15,2013-03-08 16:50:00,
2013-03-08 12:00:00,36.2,23.6,30.03,NW,317,11.0,11.0,60,0.00,,,0.00,Wunderground v.1.15,2013-03-08 17:00:00,
2013-03-08 12:10:00,36.2,22.4,30.03,North,5,12.0,12.0,57,0.00,,,0.00,Wunderground v.1.15,2013-03-08 17:10:00,
2013-03-08 12:20:00,36.9,23.9,30.03,NNW,327,11.0,14.0,59,0.00,,,0.00,Wunderground v.1.15,2013-03-08 17:20:00,
2013-03-08 12:30:00,37.7,23.8,30.02,NW,321,11.0,14.0,57,0.00,,,0.00,Wunderground v.1.15,2013-03-08 17:30:00,
2013-03-08 12:40:00,37.6,24.1,30.02,NW,314,12.0,14.0,58,0.00,,,0.00,Wunderground v.1.15,2013-03-08 17:40:00,
2013-03-08 12:50:00,38.2,24.7,30.01,NW,312,13.0,13.0,58,0.00,,,0.00,Wunderground v.1.15,2013-03-08 17:50:00,
2013-03-08 13:00:00,38.5,23.7,30.00,NNW,344,11.0,11.0,55,0.00,,,0.00,Wunderground v.1.15,2013-03-08 18:00:00,
2013-03-08 13:10:00,39.7,25.3,30.00,NW,317,8.0,8.0,56,0.00,,,0.00,Wunderground v.1.15,2013-03-08 18:10:00,
2013-03-08 13:20:00,39.3,24.0,29.99,NNW,336,9.0,9.0,54,0.00,,,0.00,Wunderground v.1.15,2013-03-08 18:20:00,
2013-03-08 13:30:00,39.7,24.0,29.99,NW,310,8.0,8.0,53,0.00,,,0.00,Wunderground v.1.15,2013-03-08 18:30:00,
2013-03-08 13:40:00,40.0,23.3,29.99,WNW,294,9.0,9.0,51,0.00,,,0.00,Wunderground v.1.15,2013-03-08 18:40:00,
2013-03-08 13:50:00,39.7,24.0,29.99,NW,317,9.0,9.0,53,0.00,,,0.00,Wunderground v.1.15,2013-03-08 18:50:00,
2013-03-08 14:00:00,41.0,25.2,29.98,NNW,327,9.0,9.0,53,0.00,,,0.00,Wunderground v.1.15,2013-03-08 19:00:00,
2013-03-08 14:10:00,40.5,24.2,29.98,NNW,339,12.0,12.0,52,0.00,,,0.00,Wunderground v.1.15,2013-03-08 19:10:00,
2013-03-08 14:20:00,41.0,24.2,29.98,NNW,338,9.0,15.0,51,0.00,,,0.00,Wunderground v.1.15,2013-03-08 19:20:00,
2013-03-08 14:30:00,40.9,24.1,29.99,NW,326,10.0,10.0,51,0.00,,,0.00,Wunderground v.1.15,2013-03-08 19:30:00,
2013-03-08 14:40:00,41.0,24.2,29.99,NNW,327,11.0,24.0,51,0.00,,,0.00,Wunderground v.1.15,2013-03-08 19:40:00,
2013-03-08 14:50:00,40.6,23.4,29.98,NNW,338,14.0,14.0,50,0.00,,,0.00,Wunderground v.1.15,2013-03-08 19:50:00,
2013-03-08 15:00:00,41.4,24.6,29.98,WNW,294,10.0,10.0,51,0.00,,,0.00,Wunderground v.1.15,2013-03-08 20:00:00,
2013-03-08 15:10:00,41.6,24.8,29.98,NW,311,11.0,11.0,51,0.00,,,0.00,Wunderground v.1.15,2013-03-08 20:10:00,
2013-03-08 15:20:00,41.8,25.0,29.99,WNW,302,10.0,10.0,51,0.00,,,0.00,Wunderground v.1.15,2013-03-08 20:20:00,
2013-03-08 15:30:00,41.3,25.0,29.99,NW,313,13.0,13.0,52,0.00,,,0.00,Wunderground v.1.15,2013-03-08 20:30:00,
2013-03-08 15:40:00,41.6,26.2,29.99,NW,305,11.0,15.0,54,0.00,,,0.00,Wunderground v.1.15,2013-03-08 20:40:00,
2013-03-08 15:50:00,41.5,25.2,29.99,WNW,297,12.0,12.0,52,0.00,,,0.00,Wunderground v.1.15,2013-03-08 20:50:00,
2013-03-08 16:00:00,41.0,24.7,29.99,NW,305,12.0,12.0,52,0.00,,,0.00,Wunderground v.1.15,2013-03-08 21:00:00,
2013-03-08 16:10:00,41.1,24.8,29.99,NNW,328,12.0,12.0,52,0.00,,,0.00,Wunderground v.1.15,2013-03-08 21:10:00,
2013-03-08 16:20:00,40.9,24.1,29.99,NW,309,11.0,11.0,51,0.00,,,0.00,Wunderground v.1.15,2013-03-08 21:20:00,
2013-03-08 16:30:00,40.9,25.1,29.98,NW,321,11.0,11.0,53,0.00,,,0.00,Wunderground v.1.15,2013-03-08 21:30:00,
2013-03-08 16:40:00,39.9,24.1,29.99,NW,313,16.0,21.0,53,0.00,,,0.00,Wunderground v.1.15,2013-03-08 21:40:00,
2013-03-08 16:50:00,40.0,25.1,29.98,West,266,15.0,15.0,55,0.00,,,0.00,Wunderground v.1.15,2013-03-08 21:50:00,
2013-03-08 17:00:00,39.9,25.0,29.99,NW,323,15.0,18.0,55,0.00,,,0.00,Wunderground v.1.15,2013-03-08 22:00:00,
2013-03-08 17:10:00,39.7,25.3,29.99,NW,309,13.0,13.0,56,0.00,,,0.00,Wunderground v.1.15,2013-03-08 22:10:00,
2013-03-08 17:20:00,39.5,25.1,29.99,NW,306,13.0,14.0,56,0.00,,,0.00,Wunderground v.1.15,2013-03-08 22:20:00,
2013-03-08 17:29:00,39.3,25.3,29.99,NW,319,11.0,14.0,57,0.00,,,0.00,Wunderground v.1.15,2013-03-08 22:29:00,
2013-03-08 17:40:00,38.3,24.8,29.98,NW,314,17.0,17.0,58,0.00,,,0.00,Wunderground v.1.15,2013-03-08 22:40:00,
2013-03-08 17:50:00,37.7,25.1,29.98,NW,321,15.0,21.0,60,0.00,,,0.00,Wunderground v.1.15,2013-03-08 22:50:00,
2013-03-08 18:00:00,37.3,24.7,29.99,NW,317,12.0,12.0,60,0.00,,,0.00,Wunderground v.1.15,2013-03-08 23:00:00,
2013-03-08 18:10:00,36.8,24.6,29.98,NNW,330,12.0,15.0,61,0.00,,,0.00,Wunderground v.1.15,2013-03-08 23:10:00,
2013-03-08 18:20:00,36.3,24.9,29.99,NW,304,12.0,13.0,63,0.00,,,0.00,Wunderground v.1.15,2013-03-08 23:20:00,
2013-03-08 18:30:00,36.0,24.6,29.99,NW,307,12.0,16.0,63,0.00,,,0.00,Wunderground v.1.15,2013-03-08 23:30:00,
2013-03-08 18:40:00,35.6,24.6,29.99,NW,306,12.0,12.0,64,0.00,,,0.00,Wunderground v.1.15,2013-03-08 23:40:00,
2013-03-08 18:50:00,35.2,24.6,29.99,NW,325,13.0,13.0,65,0.00,,,0.00,Wunderground v.1.15,2013-03-08 23:50:00,
2013-03-08 19:00:00,34.8,24.6,30.00,NW,313,10.0,13.0,66,0.00,,,0.00,Wunderground v.1.15,2013-03-09 00:00:00,
2013-03-08 19:10:00,34.6,24.4,30.00,NW,317,10.0,10.0,66,0.00,,,0.00,Wunderground v.1.15,2013-03-09 00:10:00,
2013-03-08 19:19:00,34.3,24.5,30.00,NW,314,8.0,11.0,67,0.00,,,0.00,Wunderground v.1.15,2013-03-09 00:19:00,
2013-03-08 19:30:00,33.9,24.4,30.00,NW,304,8.0,8.0,68,0.00,,,0.00,Wunderground v.1.15,2013-03-09 00:30:00,
2013-03-08 19:40:00,33.6,24.5,29.99,NW,306,12.0,16.0,69,0.00,,,0.00,Wunderground v.1.15,2013-03-09 00:40:00,
2013-03-08 19:50:00,33.5,24.4,30.00,NW,317,13.0,19.0,69,0.00,,,0.00,Wunderground v.1.15,2013-03-09 00:50:00,
2013-03-08 20:00:00,33.5,24.4,30.00,NW,306,14.0,15.0,69,0.00,,,0.00,Wunderground v.1.15,2013-03-09 01:00:00,
2013-03-08 20:10:00,33.2,24.5,29.99,NW,323,14.0,14.0,70,0.00,,,0.00,Wunderground v.1.15,2013-03-09 01:10:00,
2013-03-08 20:20:00,33.0,24.3,30.00,NW,322,14.0,20.0,70,0.00,,,0.00,Wunderground v.1.15,2013-03-09 01:20:00,
2013-03-08 20:30:00,32.8,24.1,30.01,West,281,9.0,9.0,70,0.00,,,0.00,Wunderground v.1.15,2013-03-09 01:30:00,
2013-03-08 20:39:00,32.7,24.3,30.02,WNW,295,7.0,7.0,71,0.00,,,0.00,Wunderground v.1.15,2013-03-09 01:39:00,
2013-03-08 20:50:00,32.7,24.3,30.02,West,277,8.0,8.0,71,0.00,,,0.00,Wunderground v.1.15,2013-03-09 01:50:00,
2013-03-08 21:00:00,32.4,24.0,30.03,West,275,7.0,7.0,71,0.00,,,0.00,Wunderground v.1.15,2013-03-09 02:00:00,
2013-03-08 21:10:00,32.5,24.1,30.03,West,276,8.0,8.0,71,0.00,,,0.00,Wunderground v.1.15,2013-03-09 02:10:00,
2013-03-08 21:20:00,32.1,23.8,30.03,NW,323,7.0,7.0,71,0.00,,,0.00,Wunderground v.1.15,2013-03-09 02:20:00,
2013-03-08 21:30:00,32.0,24.0,30.04,West,260,6.0,6.0,72,0.00,,,0.00,Wunderground v.1.15,2013-03-09 02:30:00,
2013-03-08 21:40:00,31.7,23.7,30.04,WSW,248,6.0,6.0,72,0.00,,,0.00,Wunderground v.1.15,2013-03-09 02:40:00,
2013-03-08 21:50:00,31.8,23.8,30.04,NW,319,6.0,6.0,72,0.00,,,0.00,Wunderground v.1.15,2013-03-09 02:50:00,
2013-03-08 22:00:00,31.8,24.1,30.04,NNW,346,8.0,14.0,73,0.00,,,0.00,Wunderground v.1.15,2013-03-09 03:00:00,
2013-03-08 22:09:00,31.7,24.0,30.04,WNW,302,10.0,10.0,73,0.00,,,0.00,Wunderground v.1.15,2013-03-09 03:09:00,
2013-03-08 22:19:00,31.6,23.9,30.05,WNW,297,8.0,8.0,73,0.00,,,0.00,Wunderground v.1.15,2013-03-09 03:19:00,
2013-03-08 22:29:00,31.8,23.8,30.06,WNW,284,7.0,7.0,72,0.00,,,0.00,Wunderground v.1.15,2013-03-09 03:29:00,
2013-03-08 22:40:00,31.9,23.6,30.06,NW,315,6.0,6.0,71,0.00,,,0.00,Wunderground v.1.15,2013-03-09 03:40:00,
2013-03-08 22:50:00,31.5,23.5,30.06,NW,311,4.0,4.0,72,0.00,,,0.00,Wunderground v.1.15,2013-03-09 03:50:00,
2013-03-08 23:00:00,31.0,23.4,30.06,WNW,284,4.0,4.0,73,0.00,,,0.00,Wunderground v.1.15,2013-03-09 04:00:00,
2013-03-08 23:10:00,30.5,22.9,30.06,WNW,284,1.0,9.0,73,0.00,,,0.00,Wunderground v.1.15,2013-03-09 04:10:00,
2013-03-08 23:20:00,30.1,23.1,30.06,WNW,284,1.0,9.0,75,0.00,,,0.00,Wunderground v.1.15,2013-03-09 04:20:00,
2013-03-08 23:30:00,30.0,23.0,30.06,NNW,333,6.0,9.0,75,0.00,,,0.00,Wunderground v.1.15,2013-03-09 04:30:00,
2013-03-08 23:40:00,30.1,23.8,30.06,NW,326,10.0,10.0,77,0.00,,,0.00,Wunderground v.1.15,2013-03-09 04:40:00,
2013-03-08 23:50:00,31.2,23.9,30.06,NW,321,10.0,10.0,74,0.00,,,0.00,Wunderground v.1.15,2013-03-09 04:50:00,